Retour au catalogue

COSMOS 1436

ActifMilitaireLEO
NORAD 13768·PAYLOAD·🇷🇺 Russia

Lancé Jan 19, 1983 depuis Plesetsk Cosmodrome

Loading…

Prochains Passages (prochaines 24 heures)

TLE

FraisSource: Space-Track

Époque: Sep 14, 2026, 18:09 UTC

1 13768U 83002H   26257.75684256 -.00000025  00000-0 -50072-4 0  9990
2 13768  74.0207 263.4999 0044548 274.0534 260.1922 12.57743499  4253

Suivez COSMOS 1436 en temps réel avec AllMySat

Download on the App Store